DELTA 1 DEB, 13538

Orbit data source: Space-Track

DELTA 1 DEB, 13538 is space debris in SSO originally from a launch on Thu, 29 Jul 1976 UTC launched from the Air Force Western Test Range (AFWTR). Debris objects in space refer to the collection of defunct objects orbiting the Earth. Examples of debris include non-operational satellites, rocket bodies, and fragments generated from explosions, collisions, or faulty payload assembly.

Loading next visibility...
Identifier
13538, 1976-077EL
Orbit
SSO
Country
Flag of USUS
Related business
Manufacturer
Unknown
Mission
Spacecraft
Bus & Motor
Unknown
Mass
Unknown
Launch date (UTC)
1976-07-29 (50 years ago)
Launch vehicle
Unknown
Launch site
Air Force Western Test Range (AFWTR)
Object type
Payload
Rocket body
Debris
Shape & HBR
Unknown shape, 0.1 m
Radar Cross Section
Medium (>0.1 m² and <1 m²)

Expand to show TLE details & history
Last TLE update: 2 days ago

TLE from 2 days ago
0 DELTA 1 DEB
1 13538U 76077EL  26254.43350815  .00000011  00000-0  49982-3 0  9992
2 13538 102.0358 237.3543 0107513 299.4566 215.7090 12.22143944 56621
Epoch: 2026-09-11T10:24Z
TLE epoch observation values (Epoch: 2026-09-11T10:24:15.104Z)
Latitude
24.97282°
Longitude
-83.49423°
Altitude
1,655.72 km
Speed
7.016 km/s
True Right ascension
04h 12m 06s
True Declination
24° 51' 22"
Sunlit
Object was in daylight at epoch
Visualization orbit readout
Latitude
Unknown
Longitude
Unknown
Altitude
Unknown
Speed
Unknown
Apparent Right ascension
Unknown
Apparent Declination
Unknown
Sunlit
N/A
Visualization observer readout
Local Sidereal Time
17:33:50
Azimuth
Unknown
Elevation
Unknown
Doppler factor
Unknown
Orbital elements
Apogee altitude
1,666.386 km
Perigee altitude
1,495.248 km
Semi-major axis
7,958.954 km
Eccentricity
0.01075
Inclination
102.0358°
RAAN
237.3543°
Arg. of periapsis
299.4566°
True anomaly
214.9977°
Mean anomaly
215.709°
Eccentric anomaly
215.35258°
Mean motion
3.05674 °/min
Orbital period
117.77 mins
BSTAR
0.00049982
Loading maneuver chart data...
Computing Atmospheric mass density...
Loading historical data...
Loading historical data...
Loading historical data...
Loading historical data...
Loading historical data...
Loading historical data...
Loading historical data...

Documentation

Showing up to 5 results
|